Ardmore, OK

10:55 AM CST on November 22, 2017 (GMT -0600)
Ardmore Municipal

Weather History for KADM - December, 2013

Change the Weather History Date:

Thursday, December 12, 2013

  Actual Average Record
Temperature  
Mean Temperature 34 °F -  
Max Temperature 46 °F 53 °F 72 °F (2015)
Min Temperature 21 °F 34 °F 14 °F (2000)
Degree Days  
Heating Degree Days 32    
Moisture  
Dew Point 26 °F    
Average Humidity 79    
Maximum Humidity 96    
Minimum Humidity 53    
Precipitation  
Precipitation 0.00 in - - ()
Sea Level Pressure  
Sea Level Pressure 30.50 in    
Wind  
Wind Speed 3 mph (SE)    
Max Wind Speed 7 mph    
Max Gust Speed -    
Visibility 10 miles    
Events      
Averages and records for this station are not official NWS values.
T = Trace of Precipitation, MM = Missing Value Source: NWS Daily Summary

Daily Weather History Graph

Daily Weather History Graph

Search for Another Location

Airport or City:

Trip Planner

Search our weather history database for the weather conditions in past years. The results will help you decide how hot, cold, wet, or windy it might be!

Date:

Astronomy

Dec. 12, 2013 Rise Set
Actual Time 7:25 AM CST 5:18 PM CST
Civil Twilight 6:57 AM CST 5:46 PM CST
Nautical Twilight 6:25 AM CST 6:18 PM CST
Astronomical Twilight 5:55 AM CST 6:48 PM CST
Moon 2:18 PM CST (12/12) 2:57 AM CST (12/12)
Length of Visible Light 10h 49m
Length of Day
9h 53m
Waxing Gibbous, 80% of the Moon is Illuminated
Dec 12
Waxing Gibbous
Dec 17
Full
Dec 25
Last Quarter
Jan 1
New
Jan 7
First Quarter

Hourly Weather History & Observations

Time (CST) Temp. Windchill Dew Point Humidity Pressure Visibility Wind Dir Wind Speed Gust Speed Precip Events Conditions
12:15 AM 28.8 °F 25.0 °F 22.8 °F 78% 30.60 in 10.0 mi NNW 3.5 mph - N/A   Clear
12:35 AM 28.0 °F 21.7 °F 22.1 °F 78% 30.60 in 10.0 mi North 5.8 mph - N/A   Clear
12:55 AM 27.9 °F - 22.5 °F 80% 30.60 in 10.0 mi Calm Calm - N/A   Clear
1:15 AM 28.4 °F 24.6 °F 22.1 °F 77% 30.60 in 10.0 mi NNE 3.5 mph - N/A   Clear
1:35 AM 28.0 °F - 22.1 °F 78% 30.60 in 10.0 mi Calm Calm - N/A   Clear
1:55 AM 28.9 °F - 22.1 °F 76% 30.59 in 10.0 mi Calm Calm - N/A   Clear
2:15 AM 27.9 °F 24.0 °F 21.9 °F 78% 30.59 in 10.0 mi North 3.5 mph - N/A   Clear
2:35 AM 27.5 °F 23.6 °F 21.7 °F 79% 30.60 in 10.0 mi NNE 3.5 mph - N/A   Clear
2:55 AM 28.0 °F 22.8 °F 22.1 °F 78% 30.60 in 10.0 mi North 4.6 mph - N/A   Clear
3:15 AM 27.0 °F 21.6 °F 21.7 °F 81% 30.59 in 10.0 mi North 4.6 mph - N/A   Clear
3:35 AM 27.0 °F 21.6 °F 21.7 °F 81% 30.59 in 10.0 mi North 4.6 mph - N/A   Clear
3:55 AM 26.8 °F - 21.4 °F 80% 30.60 in 10.0 mi Calm Calm - N/A   Clear
4:15 AM 25.7 °F 21.5 °F 21.2 °F 83% 30.59 in 10.0 mi NNE 3.5 mph - N/A   Clear
4:35 AM 25.5 °F - 21.2 °F 84% 30.58 in 10.0 mi Calm Calm - N/A   Clear
4:55 AM 24.1 °F - 21.0 °F 88% 30.58 in 10.0 mi Calm Calm - N/A   Clear
5:15 AM 22.8 °F - 21.2 °F 93% 30.57 in 10.0 mi Calm Calm - N/A   Clear
5:35 AM 21.9 °F - 21.0 °F 96% 30.57 in 10.0 mi Calm Calm - N/A   Clear
6:55 AM 21.2 °F - 19.4 °F 93% 30.58 in 10.0 mi Calm Calm - N/A   Clear
7:55 AM 21.2 °F - 19.4 °F 93% 30.60 in 5.0 mi Calm Calm - N/A   Haze
8:55 AM 26.6 °F - 24.8 °F 93% 30.60 in 7.0 mi Calm Calm - N/A   Haze
9:55 AM 32.0 °F - 26.6 °F 80% 30.62 in - Calm Calm - N/A   Clear
10:55 AM 35.6 °F 32.8 °F 28.4 °F 75% 30.60 in - South 3.5 mph - N/A   Clear
11:55 AM 39.2 °F 34.2 °F 28.4 °F 65% 30.57 in - South 6.9 mph - N/A   Clear
12:55 PM 42.8 °F 38.6 °F 30.2 °F 61% 30.51 in - South 6.9 mph - N/A   Clear
1:55 PM 44.6 °F 40.7 °F 32.0 °F 61% 30.47 in - South 6.9 mph - N/A   Clear
2:55 PM 46.4 °F 43.5 °F 30.2 °F 53% 30.43 in - South 5.8 mph - N/A   Clear
3:55 PM - - - N/A% 30.40 in - South 5.8 mph - N/A   Clear
4:55 PM 39.2 °F 35.0 °F 32.0 °F 75% 30.39 in - South 5.8 mph - N/A   Clear
5:55 PM 37.4 °F 32.8 °F 30.2 °F 75% 30.38 in - SE 5.8 mph - N/A   Clear
6:55 PM 35.6 °F 30.7 °F 30.2 °F 81% 30.38 in - SE 5.8 mph - N/A   Clear
7:55 PM 35.6 °F 30.7 °F 30.2 °F 81% 30.37 in - SE 5.8 mph - N/A   Clear
8:55 PM 35.6 °F 31.7 °F 30.2 °F 81% 30.34 in - SE 4.6 mph - N/A   Clear
9:55 PM 35.6 °F - 32.0 °F 87% 30.33 in - Calm Calm - N/A   Clear
10:35 PM 37.4 °F 33.8 °F 31.6 °F 80% 30.31 in 10.0 mi SE 4.6 mph - N/A   Scattered Clouds
10:55 PM 37.4 °F 32.8 °F 32.0 °F 81% 30.31 in 10.0 mi SSE 5.8 mph - N/A   Mostly Cloudy
11:15 PM 37.6 °F 33.1 °F 32.0 °F 80% 30.30 in 10.0 mi SE 5.8 mph - N/A   Mostly Cloudy
11:35 PM 37.8 °F 32.5 °F 32.0 °F 80% 30.28 in 10.0 mi SE 6.9 mph - N/A   Mostly Cloudy
11:55 PM 38.3 °F 33.9 °F 32.0 °F 78% 30.27 in 10.0 mi SE 5.8 mph - N/A   Mostly Cloudy